Regional Weather Roundup
Issued by NWS Grand Forks, ND

Home | Current Version | Previous Version | Graphics & Text | Print | Product List | Glossary On
Versions: 1 2 3 4 5 6 7 8 9 10 11 12 13 14 15 16 17 18 19 20 21 22 23 24 25 26 27 28 29 30 31 32 33 34 35 36 37 38 39 40 41 42 43 44 45 46 47 48 49 50
253
ASUS43 KFGF 230931
RWRFGF
PRAIRIE TO PINES  WEATHER ROUNDUP
NATIONAL WEATHER SERVICE EASTERN NORTH DAKOTA/GRAND FORKS ND
300 AM CST THU FEB 23 2017

 **SATELLITE DATA USED TO AUGMENT SKY COVER AT AUTOMATED STATIONS**
 *****  WEATHER ACROSS EASTERN NORTH DAKOTA  *****

CITY           SKY/WX    TMP DP  RH WIND       PRES   REMARKS
GRAND FORKS    MOCLDY    28  21  75 N7        29.98S WCI  21
GRAND FRKS AFB CLOUDY    27  23  86 N8        29.99S WCI  18
DEVILS LAKE    FAIR      24  21  88 N12       29.97S WCI  13
FARGO          FAIR      28  25  88 N6        29.98R WCI  22
WAHPETON ARPT  FAIR      28  25  86 N6        29.96F WCI  22
$$

 ***** WEATHER ACROSS CENTRAL AND WESTERN NORTH DAKOTA  *****

CITY           SKY/WX    TMP DP  RH WIND       PRES   REMARKS
BISMARCK       CLOUDY    27  25  92 NW3       30.00S
MINOT          CLOUDY    31  27  85 NW6       29.96F
JAMESTOWN      FAIR      23  22  96 NW8       29.97S WCI  14
MINOT AFB      MOCLDY    30  27  89 NW7       29.95F WCI  23
GARRISON         N/A     24  21  88 NW6       29.97  WCI  17
WILLISTON      CLOUDY    29  26  89 CALM      29.99F
DICKINSON      CLOUDY    23  20  88 CALM      29.96R
HETTINGER      CLOUDY    27  24  89 NE7       29.97S WCI  19
$$

 *****  OTHER AIRPORT OBSERVATIONS IN OUR AREA  *****

CITY           SKY/WX    TMP DP  RH WIND       PRES   REMARKS
WALHALLA       NOT AVBL
GRAFTON AIRPOR PTSUNNY   28  25  86 N9        30.01S WCI  20
VALLEY CITY AR PTSUNNY   23  23 100 NW5       29.99S WCI  17
CANDO          NOT AVBL
CAVALIER APRT    N/A     28  23  80 N9        30.00F WCI  20
GWINNER        FAIR      27  27 100 NW12      29.98R WCI  16
SHEYENNE NWR     N/A     25  22  90 CALM      29.95S
ROLLA          CLOUDY    25  25 100 NW5       29.96F WCI  19
 ***** THE ABOVE OBSERVATIONS ARE NON NWS ARE NOT QUALITY
       CONTROLLED AND MAY MIS-REPORT RAIN FOR SNOW...
$$

  *****  WEATHER ACROSS NORTHERN MINNESOTA  *****

CITY           SKY/WX    TMP DP  RH WIND       PRES   REMARKS
FLAG ISLAND    CLOUDY    21  12  68 N23G29    29.96S WCI   5
WARROAD        CLOUDY    25  18  74 NW12G18   29.97S WCI  14
ROSEAU         CLOUDY    27  18  69 N10G20    29.97F WCI  17
HALLOCK        CLOUDY    27  23  86 N8        29.99F WCI  18
THF RVR FALLS  FAIR      24  20  84 N10       29.96  WCI  14
BAUDETTE       CLOUDY    25  18  74 NW16      29.93R WCI  12
WASKISH        CLOUDY    25  19  80 N5        29.94F WCI  19
CROOKSTON      MOCLDY    28  21  74 NE12      29.98S WCI  18
STEPHEN NDAWN    N/A     27  23  86 N10         N/A  WCI  17
GREENBUSH NDAW   N/A     16  16 100 NW3         N/A
$$
  *****  WEATHER ACROSS CENTRAL AND WEST MINNESOTA  *****

CITY           SKY/WX    TMP DP  RH WIND       PRES   REMARKS
FOSSTON        FAIR      23  21  93 N9        29.94S WCI  13
BEMIDJI        CLOUDY    24  19  82 N10G18    29.90F WCI  13
PARK RAPIDS    CLOUDY    26  20  77 N8        29.90R WCI  18
ELBOW LAKE     FAIR      28  27  99 NW7       29.93F WCI  20
WADENA         FAIR      25  21  86 NW3       29.91S
DETROIT LAKES  FAIR      28  27  93 N7        29.94R WCI  21
MOORHEAD       FAIR      28  27  93 N9        29.97F WCI  20
FERGUS FALLS   FAIR      27  27 100 NW7       29.98S WCI  19
MORRIS MN      FAIR      30  28  93 N13       29.91F WCI  20
STAPLES        FAIR      23  21  93 NW5       29.91R WCI  17
$$
  *****  WEATHER ELSEWHERE ACROSS MINNESOTA  *****

CITY           SKY/WX    TMP DP  RH WIND       PRES   REMARKS
DULUTH         FAIR      28  26  92 N10       29.82R WCI  19
INTRNTL FALLS  CLOUDY    25  15  66 NW12      29.91R WCI  14
ELY            CLOUDY    27  21  80 NW6       29.83S WCI  20
CLOQUET        FAIR      27  25  93 NW7       29.84S WCI  19
WHEATON        FAIR      28  25  86 NW7       29.97F WCI  21
BRAINERD       FAIR      27  23  85 N9        29.89  WCI  18
HIBBING        FAIR      24  23  96 NW13      29.86R WCI  12
ALEXANDRIA     FAIR      29  25  85 N5        29.92R WCI  24
SAINT CLOUD    FAIR      29  26  89 NW7       29.90R WCI  22
MINNEAPOLIS    CLOUDY    36  29  75 N14G28    29.85S
$$

  *****  WEATHER ACROSS SOUTH DAKOTA  *****

CITY           SKY/WX    TMP DP  RH WIND       PRES   REMARKS
SIOUX FALLS    CLOUDY    32  29  88 N15       29.87S WCI  22
BROOKINGS      CLOUDY    30  25  81 NE16G22   29.86F WCI  19
WATERTOWN      FAIR      26  23  88 NE13      29.90F WCI  15
HURON          FAIR      30  26  85 N12       29.96R WCI  20
SISSETON         N/A     28  25  88 N12       29.94F WCI  18
ABERDEEN       FAIR      25  21  85 N8        29.97F WCI  16
MITCHELL       CLOUDY    32  28  85 N16       29.95R WCI  21
PIERRE         CLOUDY    30  24  78 NE13      29.97R WCI  20
MOBRIDGE       FAIR      28  23  81 N5        29.96S WCI  23
RAPID CITY     CLOUDY    30  28  92 NE7       29.90R FOG     WCI  23
$$

  *****  SOME WEATHER IN NEARBY STATES *****

CITY           SKY/WX    TMP DP  RH WIND       PRES   REMARKS
GLASGOW MT     CLOUDY    25  22  88 W6        29.99S WCI  18
GREAT FALLS MT FLURRIES  29  26  89 N7        29.93S WCI  22
CHEYENNE WY    CLOUDY    29  27  92 E16       29.68F WCI  17
SCOTTSBLUFF NE CLOUDY    33  29  85 E13G23    29.76F WCI  24
OMAHA NE       FAIR      40  35  83 N10       29.79F
DES MOINES IA  CLOUDY    42  38  85 N14       29.78F
DAVENPORT IA   MOCLDY    42  40  92 NW10      29.74S
CHICAGO IL     FAIR      52  47  83 W8        29.67R
EAU CLAIRE WI  CLOUDY    37  33  85 N13       29.78R
LA CROSSE WI   CLOUDY    42  36  79 NW14      29.75R
$$

  *****  SOME NATIONAL WEATHER *****

CITY           SKY/WX    TMP DP  RH WIND       PRES   REMARKS
LA GUARDIA NY  FAIR      43  38  82 NE6       29.88S
RALEIGH NC     MOCLDY    56  53  90 CALM      29.91F
ATLANTA GA     FAIR      56  55  97 NE6       29.86S
NEW ORLEANS LA FAIR      58  57  97 CALM      29.79F
OKLAHOMA CITY  MOCLDY    56  46  69 S9        29.59F
ALBUQUERQUE NM FAIR      46  29  51 S14       29.74F
SALT LAKE CITY CLOUDY    31  28  89 S7        29.72F WCI  24
LOS ANGELES CA FAIR      53  32  44 NW9       30.06F
BOISE ID       FLURRIES  32  27  81 NW14      29.82S WCI  22
SEATTLE WA     LGT RAIN  36  34  92 CALM      30.22R
$$

*** WEATHER ACROSS MANITOBA...SASKATCHEWAN AND ONTARIO ***
                ***ONTARIO***

CITY           SKY/WX    TMP DP  RH WIND       PRES   REMARKS
GERALDTON      FLURRIES  28  23  80 N7        29.72R WCI  21
THUNDER BAY    MOCLDY    28  23  80 W3        29.78R
SIOUX LOOKOUT  FLURRIES  21  10  63 NW13G22   29.86R WCI   9
TORONTO        CLOUDY    46  46 100 SE7       29.64F
BIG TROUT LK   LGT SNOW  -2  -6  84 NW10      29.86S WCI -19
PICKLE LAKE    NOT AVBL
DRYDEN         FLURRIES  23  14  68 NW14G24   29.87R WCI  11
KENORA         CLOUDY    19  10  68 N13G21    29.93R WCI   7
$$
                *** MANITOBA***

CITY           SKY/WX    TMP DP  RH WIND       PRES   REMARKS
BRANDON        CLOUDY    25  19  80 NE6       30.02R WCI  18
DAUPHIN        FLURRIES  21  16  79 E2        30.05F
ISLAND LAKE    FLURRIES   0  -6  78 N12       30.01R WCI -18
PILOT MOUND      N/A     25  21  86 N6          N/A  WCI  18
THE PAS        CLEAR      5  -2  72 N10       30.09S WCI -10
THOMPSON       FLURRIES  -4  -9  77 N10       30.12R WCI -21
WINNIPEG       MOCLDY    25  21  86 N9        30.03R WCI  15
LYNN LAKE      CLOUDY    -4  -9  77 NE8       30.12S WCI -19
CHURCHILL      CLEAR     -9 -13  84 N12       30.23S WCI -29
GILLAM         CLEAR    -17 -22  76 N9        30.10R WCI -36
$$
                ***SASKATCHEWAN***

CITY           SKY/WX    TMP DP  RH WIND       PRES   REMARKS
ESTEVAN        CLOUDY    28  27  93 N15       29.98S WCI  17
KINDERSLEY     MOCLDY    23  19  86 NW7       30.07S WCI  15
LLOYDMINSTER   MOCLDY    18  14  86 NW7       30.06S WCI   8
PRINCE ALBERT  FLURRIES  19  12  73 S3        30.05F
REGINA         CLOUDY    23  18  80 N13G18    30.06R WCI  11
YORKTON        FLURRIES  21  14  73 NW8       30.05S WCI  12
N. BATTLEFORD  CLOUDY    21  18  86 NW6       30.08S WCI  14
LA RONGE       FLURRIES  10   5  79 NE8       30.08S WCI  -1
SASKATOON      CLOUDY    23  18  80 W8        30.08S WCI  14
SWIFT CURRENT  CLOUDY    19  19 100 N5        30.02S WCI  13
$$
NOTE: THESE ARE AUTOMATED STATIONS WITH LIMITED QUALITY CONTROL
      "FAIR" INDICATES FEW OR NO CLOUDS BELOW 12,000 FEET WITH NO
      SIGNIFICANT WEATHER AND/OR OBSTRUCTIONS TO VISIBILITY.
      SKY/WX - SKY CONDITION AND SIGNIFICANT WEATHER.
      TMP - AIR TEMPERATURE.    DP   - DEWPOINT TEMPERATURE.
      RH  - RELATIVE HUMIDITY.  PRES - PRESSURE.
      HX  - HEAT INDEX.         WCI  - WIND CHILL INDEX.
$




USA.gov is the U.S. government's official web portal to all federal, state and local government web resources and services.